Regional Weather Roundup
Issued by NWS Northern Indiana

Home | Current Version | Previous Version | Graphics & Text | Print | Product List | Glossary On
Versions: 1 2 3 4 5 6 7 8 9 10 11 12 13 14 15 16 17 18 19 20 21 22 23 24 25 26 27 28 29 30 31 32 33 34 35 36 37 38 39 40 41 42 43 44 45 46 47 48 49 50
000
ASUS43 KIWX 232010
RWRIWX

KIWX WEATHER ROUNDUP
NATIONAL WEATHER SERVICE NORTHERN INDIANA
400 PM EDT FRI JUN 23 2017

NOTE: "FAIR" INDICATES FEW OR NO CLOUDS BELOW 12,000 FEET WITH NO
SIGNIFICANT WEATHER AND/OR OBSTRUCTIONS TO VISIBILITY.

* THESE STATIONS ARE NOT UNDER NWS QUALITY CONTROL. THEY ALSO MAY NOT
  REPORT WEATHER SUCH AS PRECIPITATION OR FOG.

INZ001>027-232100-
NORTHERN INDIANA

CITY           SKY/WX    TMP DP  RH WIND       PRES   REMARKS
VALPARAISO     CLOUDY    77  58  51 VRB6      29.74R
MICHIGAN CITY* CLOUDY    72  59  64 NW5       29.73F
LAPORTE*       CLOUDY    73  60  63 NW7       29.74R
KNOX*          CLOUDY    72  46  40 NW6       29.72S
SOUTH BEND     CLOUDY    72  60  66 NW8       29.72S
ELKHART*       CLOUDY    73  61  64 W12       29.71S
GOSHEN         CLOUDY    73  59  61 NW7       29.70F
MONTICELLO*    CLOUDY    73  62  70 N8        29.72S
LOGANSPORT*    CLOUDY    72  63  73 NW8       29.73S
ROCHESTER*     CLOUDY    73  63  68 NW8       29.73S
WARSAW*        CLOUDY    72  59  64 NW7       29.72S
AUBURN*        CLOUDY    73  64  73 W9        29.70R
FORT WAYNE     CLOUDY    71  65  81 W8        29.70S
HUNTINGTON*    CLOUDY    69  67  93 NW5       29.71S
PERU/GRISSOM   PTSUNNY   73  67  82 N10       29.71S
MARION*        CLOUDY    66  64  94 NW8       29.72F FOG

$$
INZ028>050-232100-
CENTRAL INDIANA

CITY           SKY/WX    TMP DP  RH WIND       PRES   REMARKS
LAFAYETTE      CLOUDY    70  68  93 N3        29.72S
KOKOMO*        CLOUDY    72  66  83 NW8       29.73S
MUNCIE*        CLOUDY    71  67  87 W9        29.71F
INDIANAPOLIS   LGT RAIN  70  69  97 SW3       29.71F

$$
MIZ043>046-050>051-056>058-064>065-071>073-077>080-232100-
SOUTHWEST LOWER MICHIGAN

CITY           SKY/WX    TMP DP  RH WIND       PRES   REMARKS
BATTLE CREEK   CLOUDY    75  61  61 W14       29.69S
BENTON HARBOR  CLOUDY    71  59  65 VRB5      29.71S
COLDWATER*     CLOUDY    74  63  69 W10       29.68F
HILLSDALE*     CLOUDY    72  63  73 W13       29.67S
HOLLAND        CLOUDY    73  59  61 NW9       29.69S
GRAND RAPIDS   CLOUDY    76  59  55 NW9       29.66S
KALAMAZOO      CLOUDY    74  58  57 W13       29.69S
STURGIS*       CLOUDY    73  62  68 NW6       29.69S
THREE RIVERS*  FAIR      73  60  64 NW9       29.70S

$$
OHZ001>008-015>018-024>025-232100-
NORTHWEST OHIO

CITY           SKY/WX    TMP DP  RH WIND       PRES   REMARKS
WAUSEON*       CLOUDY    75  66  73 W9G15     29.65S
DEFIANCE       CLOUDY    70  67  90 VRB3      29.67R
FINDLAY        PTSUNNY   72  66  81 W14       29.67R
TOLEDO EXPRESS LGT RAIN  72  71  97 SW13      29.64R
TOLEDO METCALF PTSUNNY   77  70  79 SW17G24   29.63R
LIMA           LGT RAIN  68  68 100 SW14      29.70R

$$
AND FOR LAKE MICHIGAN COASTAL AND OPEN LAKE BUOY OBSERVATIONS

STATION/POSITION TEMP    WIND        PRES    VSBY  WAVE
                 AIR SEA DIR/SP/G                  HT/PER
                 (F)     (DEG/KT/KT) (MB)    (MI)  (FT/S)
CALUMET HARBOR    73      40/  5/  7 1005.9S
MICHIGAN CITY     67     250/  4/  4   N/A
BURNS HARBOR      70      CALM  /  2 1007.1S
SOUTH LAKE BUOY   65 63  250/  4/  6 1005.3F         0
4 MI NW BRIDGMAN  68 69  330/  6/  8 1006.1          2/ 3
MICHIGAN CITY     68 68  270/  2/  4   N/A           1/ 3

$$
&&




USA.gov is the U.S. government's official web portal to all federal, state and local government web resources and services.